Dewpoint
72 71 71 72 71 72 72 72 72 73 71 70 67 69 70 68 72 73 71 70 69 70
73 71 72 73 73 73 73 74 71 72 69 70 69 71 73 71 71 71 71 71 71 69
72 73 74 73 72 72 72 72 72 71 72 71 71 71 71 71 71 69 69 68 66 67
73 69 72 71 71 71 71 70 69 69 69 69 69 68 68 68 67 66 64 63 62 62
70 71 70 70 69 68 68 68 66 66 66 67 67 67 66 65 64 61 61 61 60 60
69 68 67 67 66 66 65 65 64 64 64 64 64 65 65 63 62 61 61 61 60 59
66 66 66 66 65 65 63 63 62 62 61 62 62 62 61 62 62 62 62 62 62 62
65 64 65 65 64 64 63 62 61 60 59 60 61 62 61 60 59 58 58 59 59 61
64 63 63 64 63 62 61 61 59 58 57 58 61 64 63 60 59 59 58 57 57 56
63 62 63 63 61 60 60 59 58 57 55 55 58 63 62 59 56 55 54 54 53 51
64 63 62 61 60 59 59 58 57 56 53 52 55 61 59 55 48 47 48 49 49 47
64 62 62 62 61 61 59 58 56 53 51 50 53 59 59 56 51 49 49 47 50 46
64 63 62 62 61 59 58 58 55 52 51 52 52 59 59 58 53 50 45 45 46 53
64 63 62 61 59 58 57 53 49 49 49 48 49 54 57 55 50 46 46 47 47 48
Lifted_Index
-5 -5 -5 -5 -5 -5 -4 -4 -4 -3 -3 -2 -2 -2 -3 -3 -3 -3 -3 -3 -2 -2
-5 -5 -5 -5 -5 -4 -4 -4 -4 -3 -3 -3 -2 -2 -3 -3 -3 -3 -3 -3 -2 -2
-6 -6 -5 -5 -5 -4 -4 -3 -3 -3 -3 -3 -3 -2 -3 -2 -2 -2 -2 -2 -2 -2
-6 -6 -5 -4 -3 -3 -3 -3 -3 -2 -2 -2 -1 -1 -1 -1 -1 -1 -1 -1 -1 -1
-6 -5 -4 -3 -3 -3 -2 -1 -1 -0 0 1 1 1 0 0 1 1 1 1 1 1
-5 -4 -3 -3 -3 -2 -0 1 2 2 3 3 2 2 2 2 2 2 3 3 3 4
-4 -4 -3 -2 -1 1 3 4 4 4 5 5 4 4 3 4 4 4 5 5 5 5
-3 -3 -2 -0 2 4 6 6 5 5 6 6 6 5 5 6 6 6 7 6 5 5
-3 -2 0 3 5 6 7 7 6 7 7 7 7 7 7 7 8 8 8 8 7 6
-0 1 4 6 7 7 8 8 8 8 8 8 8 8 8 9 10 11 11 11 9 8
4 4 5 7 7 8 9 9 9 9 8 8 8 8 9 10 12 14 14 13 12 11
6 6 6 7 7 8 9 10 11 11 10 9 8 8 9 10 13 14 13 13 13 13
5 6 6 6 6 7 9 12 14 14 12 10 9 8 9 10 12 13 13 12 12 12
5 5 5 6 6 7 10 13 16 16 14 11 9 8 9 10 12 13 12 12 12 12